Zurück zum Katalog

FENGYUN 1C DEB

AktivPO
NORAD 30132·DEBRIS·🇨🇳 China

Gestartet May 10, 1999 von Taiyuan Satellite Launch Center

Loading…

Nächste Überflüge (nächste 24 Stunden)

TLE

AktuellSource: Space-Track

Epoche: Sep 14, 2026, 08:42 UTC

1 30132U 99025SM  26257.36296983  .00000342  00000-0  27592-3 0  9999
2 30132  99.6091 226.8898 0105510  28.8729 130.8333 13.95123331999320

Verfolge FENGYUN 1C DEB in Echtzeit mit AllMySat

Download on the App Store